Weather in Chayka

Russia / Perm Krai     56°54′30″N   56°43′24″E
temp.,
°C
wind,
m/s
gust,
m/s
humid.,
%
clouds,
%
prec.,
mm/h
press.,
hPa
HPBL,
m
4 march, thu
thu423:00−5sw359790 0.6 998122
02:00−7wnw3795100 0.2 997166
05:00−8w4894100 1.1 998303
08:00−12wsw489588 0.1 998163
11:00−8sw589386 0.1 998422
14:00−5sw6990100 0.1 997716
17:00−5ssw71191100 0.2 996647
20:00−6s61492100 0.1 994695
5 march, fri
fri523:00−5s81593100 1.1 990914
02:00−3wsw61384100 1.0 9871014
05:00−6wsw9169199 1.3 989904
08:00−8wsw71489100 0.1 992635
11:00−8wsw71189100 0.1 996706
14:00−7wsw61088100 0.1 998804
17:00−7w6987100 0.2 1001724
20:00−11w4890100 0.0 1003229
6 march, sat
sat623:00−15w349251 0.0 100663
02:00−16sw34967 0.0 100741
05:00−16ssw469741 0.0 1008100
08:00−14sw5994100 0.1 1009263
11:00−11wsw5988100 0.2 1009863
14:00−10w6981100 0.1 1010978
17:00−11w468498 0.1 1010770
20:00−17w239357 0.0 101120
7 march, sun
sun723:00−21w1110028 0.0 101220
02:00−22wsw1110017 0.0 101120
05:00−22sw1110046 0.0 101120
08:00−24w1110072 0.0 101020
11:00−17wnw229170 0.0 1010245
14:00−13wnw238096 0.1 1010735
17:00−12w338498 0.1 1010648
20:00−18sw2394100 0.0 101120
8 march, mon
mon823:00−21ssw349887 0.1 101257
02:00−23s3410048 0.0 101062
05:00−21s4109871 0.0 1008240
08:00−17sse51194100 0.1 1005405
11:00−13s61292100 0.6 1003651
14:00−10s71291100 0.3 1001803
17:00−6wsw81179100 0.6 10011117
20:00−10ssw5119055 0.0 1003276